Regional Weather Roundup
Issued by NWS

Home | Current Version | Previous Version | Graphics & Text | Print | Product List | Glossary On
Versions: 1 2 3 4 5 6 7 8 9 10 11 12 13 14 15 16 17 18 19 20 21 22 23 24 25 26 27 28 29 30 31 32 33 34 35 36 37 38 39 40 41 42 43 44 45 46 47 48 49 50
244
ASUS45 KPSR 081210
RWRAZ

ARIZONA HOURLY REGIONAL WEATHER ROUNDUP
NATIONAL WEATHER SERVICE PHOENIX AZ
500 AM MST MON FEB 08 2016

NOTE: FAIR INDICATES FEW OR NO CLOUDS BELOW 12,000 FEET WITH NO
SIGNIFICANT WEATHER AND/OR OBSTRUCTIONS TO VISIBILITY.

AZZ001>003-036-081300-
NORTHWEST ARIZONA

CITY           SKY/WX    TMP DP  RH WIND       PRES   REMARKS
BULLHEAD CITY  CLEAR     59  23  25 N24G35    30.31R
KINGMAN        CLEAR     41  20  43 NE7       30.39S
6HR MIN TEMP:  39; 6HR MAX TEMP:  52;

$$

AZZ004>008-015-016-018-081300-
NORTH CENTRAL ARIZONA

CITY           SKY/WX    TMP DP  RH WIND       PRES   REMARKS
GRAND CANYON   PTCLDY    25  17  72 NE8       30.49R WCI  16
6HR MIN TEMP:  25; 6HR MAX TEMP:  39;

WILLIAMS       CLEAR     21  14  73 S5        30.49S WCI  15
PRESCOTT       PTCLDY    28  20  71 S7        30.39S WCI  21
6HR MIN TEMP:  27; 6HR MAX TEMP:  40;

FLAGSTAFF      CLEAR     35  12  38 E9G18     30.45R WCI  28
6HR MIN TEMP:  34; 6HR MAX TEMP:  37;

PAYSON         CLEAR     41  14  33 CALM      30.36F
PAGE           CLEAR     30  22  72 SE3       30.53R
6HR MIN TEMP:  29; 6HR MAX TEMP:  35;

$$

AZZ009>014-017-081300-
NORTHEAST ARIZONA

CITY           SKY/WX    TMP DP  RH WIND       PRES   REMARKS
WINSLOW        MOCLDY    22  15  75 SW5       30.49R WCI  16
6HR MIN TEMP:  21; 6HR MAX TEMP:  33;

SAINT JOHNS    PTCLDY    20  15  81 CALM      30.46R
6HR MIN TEMP:  19; 6HR MAX TEMP:  32;

WINDOW ROCK    CLEAR     21   0  39 CALM      30.47R
6HR MIN TEMP:  21; 6HR MAX TEMP:  29;

SHOW LOW       PTCLDY    21  16  79 CALM      30.46F
$$

AZZ023-081300-
GREATER PHOENIX AREA

CITY           SKY/WX    TMP DP  RH WIND       PRES   REMARKS
PHOENIX        PTCLDY    54  30  40 CALM      30.17R
6HR MIN TEMP:  50; 6HR MAX TEMP:  64;

BUCKEYE        CLEAR     46  25  42 NW6       30.19R
LUKE AFB       CLEAR     57  21  24 NE9       30.16R
6HR MIN TEMP:  56; 6HR MAX TEMP:  65;

DEER VALLEY    CLEAR     56  19  23 NE5       30.18R
6HR MIN TEMP:  54; 6HR MAX TEMP:  62;

SCOTTSDALE     CLEAR     56  21  25 SE5       30.18R
6HR MIN TEMP:  56; 6HR MAX TEMP:  69;

MESA-GATEWAY   PTCLDY    46  28  49 S5        30.18R
$$

AZZ027-028-081300-
SOUTHWEST MARICOPA COUNTY AND PINAL COUNTY

CITY           SKY/WX    TMP DP  RH WIND       PRES   REMARKS
CASA GRANDE    CLEAR     45  25  45 CALM      30.18R
6HR MIN TEMP:  45; 6HR MAX TEMP:  61;

GILA BEND      FAIR      51  25  36 NE7       30.14R
6HR MIN TEMP:  45; 6HR MAX TEMP:  56;

$$

AZZ503-504-507>509-081300-
SOUTHEAST ARIZONA

CITY           SKY/WX    TMP DP  RH WIND       PRES   REMARKS
TUCSON         CLEAR     42  22  44 SW6       30.20F
6HR MIN TEMP:  41; 6HR MAX TEMP:  50;

DAVIS-MONTHAN  CLEAR     44  19  37 SE2       30.18F
6HR MIN TEMP:  42; 6HR MAX TEMP:  51;

NOGALES        CLEAR     39  11  31 VRB3      30.21S
6HR MIN TEMP:  37; 6HR MAX TEMP:  50;

SIERRA VISTA   PTCLDY    42  12  28 NE5       30.28R
6HR MIN TEMP:  37; 6HR MAX TEMP:  49;

DOUGLAS        PTCLDY    41  14  33 N13       30.27R
6HR MIN TEMP:  27; 6HR MAX TEMP:  43;

SAFFORD        CLEAR     35  20  54 SE5       30.30R WCI  31
6HR MIN TEMP:  33; 6HR MAX TEMP:  43;

$$

AZZ020-021-025-026-031-081300-
SOUTHWEST ARIZONA

CITY           SKY/WX    TMP DP  RH WIND       PRES   REMARKS
YUMA           CLEAR     65  21  18 N15       30.15S
6HR MIN TEMP:  59; 6HR MAX TEMP:  68;

$$

CAZ031-033-041-043-047-048-061-081300-
SOUTHERN CALIFORNIA

CITY           SKY/WX    TMP DP  RH WIND       PRES   REMARKS
DOWNTOWN L.A.  CLEAR     55  35  47 CALM      30.10F
6HR MIN TEMP:  53; 6HR MAX TEMP:  62;

L.A. AIRPORT   CLEAR     56  34  43 CALM      30.10F
6HR MIN TEMP:  54; 6HR MAX TEMP:  70;

SAN DIEGO      CLEAR     56  32  40 CALM      30.09S
6HR MIN TEMP:  55; 6HR MAX TEMP:  63;

BURBANK        CLEAR     67  21  17 CALM      30.11F
6HR MIN TEMP:  62; 6HR MAX TEMP:  76;

ONTARIO        CLEAR     74  17  11 NE18G26   30.11F
6HR MIN TEMP:  72; 6HR MAX TEMP:  75;

RIVERSIDE      CLEAR     71  21  15 NE12G28   30.16S
6HR MIN TEMP:  69; 6HR MAX TEMP:  73;

PALM SPRINGS   CLEAR     65  25  22 NW6       30.23S
6HR MIN TEMP:  64; 6HR MAX TEMP:  73;

EL CENTRO NAS  CLEAR    N/A N/A N/A N8        30.18S
IMPERIAL       CLEAR     48  27  44 NW6       30.16S
6HR MIN TEMP:  48; 6HR MAX TEMP:  55;

BLYTHE         CLEAR     59  21  23 N13       30.21R
6HR MIN TEMP:  59; 6HR MAX TEMP:  66;

NEEDLES        CLEAR     60  21  22 N22       30.29R
6HR MIN TEMP:  60; 6HR MAX TEMP:  65;

$$

NVZ020-UTZ003-081300-
SOUTHERN NEVADA-UTAH

CITY           SKY/WX    TMP DP  RH WIND       PRES   REMARKS
LAS VEGAS      CLEAR     52  22  30 NE12      30.41S
6HR MIN TEMP:  51; 6HR MAX TEMP:  58;

SALT LAKE CITY PTCLDY    24  20  84 E7        30.66S WCI  16
6HR MIN TEMP:  24; 6HR MAX TEMP:  29;

$$

NMZ009-TXZ055-081300-
NEW MEXICO-WEST TEXAS

CITY           SKY/WX    TMP DP  RH WIND       PRES   REMARKS
ALBUQUERQUE    CLOUDY    31  19  61 NW5       30.43R WCI  26
6HR MIN TEMP:  30; 6HR MAX TEMP:  40;

EL PASO        PTCLDY    38  16  40 N3        30.35R
6HR MIN TEMP:  37; 6HR MAX TEMP:  45;

$$


........................KEY........................
SKY/WX - SKY CONDITION/WEATHER
TMP    - TEMPERATURE IN FAHRENHEIT
DP     - DEW POINT IN FAHRENHEIT
RH     - RELATIVE HUMIDITY IN PERCENT
WIND   - DIRECTION AND SPEED IN MILES PER HOUR (MPH)
VRB    - VARIABLE WIND DIRECTION
PRES   - MEAN SEA LEVEL PRESSURE IN INCHES OF MERCURY
         F - FALLING PRESSURE   R - RISING PRESSURE
         S - STEADY PRESSURE
VSB    - VISIBILITY IN MILES
HX     - HEAT INDEX IN FAHRENHEIT
WCI    - WIND CHILL INDEX IN FAHRENHEIT
TC     - TEMPERATURE IN CELSIUS WHICH IS ALSO KNOWN AS
         TEMPERATURE IN CENTIGRADE
AFB    - AIR FORCE BASE
         LUKE AFB IS LUKE AIR FORCE BASE
         DAVIS-MONTHAN IS DAVIS-MONTHAN AIR FORCE BASE
NAS    - NAVAL AIR STATION
         EL CENTRO NAS IS EL CENTRO NAVAL AIR STATION
N/A    - NOT AVAILABLE





USA.gov is the U.S. government's official web portal to all federal, state and local government web resources and services.